Location: Cantaing
(50.1487°N, 3.1675°E)
Time: 10:14:43
(UTC+00:00)

SL-8 Rocket - Pass Details

Date: 14 January 2026
Orbit: 955 x 990 km, 82.9° (Epoch: 10 February)

Event Time Altitude Azimuth Distance (km) Brightness Sun altitude
Rises 06:48:47 0° 191° (SSW) 3,689 7.2 -8.2°
Reaches altitude 10° 06:51:18 10° 193° (SSW) 2,743 6.5 -7.9°
Maximum altitude 06:57:37 79° 280° (W) 1,009 4.0 -6.9°
Drops below altitude 10° 07:03:56 10° 8° (N) 2,745 6.2 -6.0°
Sets 07:06:28 0° 10° (N) 3,692 6.8 -5.7°
